AFL1586 UUEE-UWKS

Flight info

Callsign AFL1586
Flight time 1h 2m
Altitude 37000
Route KOGOM3H KOGOM L94 EKPIR M864 INKEB L94 NAMER NAMER1B
Aircraft A320/M-SDE3FGHIRWY/LB1

Departure

Time 2026-05-04 17:40
Airport Sheremetyevo International Airport (UUEE)

Arrival

Time 2026-05-04 18:42
Airport Cheboksary Airport (UWKS)
Time Latitude Longitude Altitude Speed Heading
2026-05-04 17:37 55.97865 37.43386 642 ft 19 kts 76°
2026-05-04 17:37 55.97891 37.43585 639 ft 15 kts 74°
2026-05-04 17:37 55.97917 37.43734 641 ft 13 kts 73°
2026-05-04 17:37 55.97941 37.43891 643 ft 15 kts 75°
2026-05-04 17:38 55.97930 37.44028 642 ft 14 kts 143°
2026-05-04 17:38 55.97838 37.44077 640 ft 9 kts 166°
2026-05-04 17:38 55.97782 37.44046 640 ft 7 kts 252°
2026-05-04 17:38 55.97777 37.44010 641 ft 1 kts 257°
2026-05-04 17:39 55.97777 37.44009 641 ft 0 kts 257°
2026-05-04 17:39 55.97770 37.43957 643 ft 22 kts 257°
2026-05-04 17:39 55.97658 37.43197 642 ft 100 kts 254°
2026-05-04 17:40 55.97424 37.41646 640 ft 156 kts 255°
2026-05-04 17:40 55.97111 37.39620 1054 ft 170 kts 252°
2026-05-04 17:40 55.96763 37.37601 1845 ft 170 kts 250°
2026-05-04 17:40 55.96398 37.35502 2348 ft 186 kts 251°
2026-05-04 17:41 55.95998 37.33185 2725 ft 206 kts 252°
2026-05-04 17:41 55.95610 37.30672 3394 ft 210 kts 255°
2026-05-04 17:41 55.95243 37.28183 4355 ft 208 kts 255°
2026-05-04 17:41 55.94855 37.25573 4884 ft 229 kts 255°
2026-05-04 17:42 55.94421 37.22686 5409 ft 251 kts 255°
2026-05-04 17:42 55.93957 37.19632 6281 ft 257 kts 256°
2026-05-04 17:42 55.93479 37.16538 7210 ft 261 kts 255°
2026-05-04 17:42 55.92990 37.13404 8127 ft 264 kts 255°
2026-05-04 17:43 55.92491 37.10232 9077 ft 267 kts 255°
2026-05-04 17:43 55.91987 37.07011 9775 ft 272 kts 257°
2026-05-04 17:43 55.91852 37.03665 10089 ft 274 kts 277°
2026-05-04 17:43 55.92396 37.00414 10974 ft 277 kts 295°
2026-05-04 17:44 55.93542 36.97620 11816 ft 284 kts 315°
2026-05-04 17:44 55.95144 36.95483 12649 ft 290 kts 322°
2026-05-04 17:44 55.96873 36.93572 13460 ft 297 kts 333°
2026-05-04 17:44 55.98892 36.92609 14196 ft 307 kts 352°
2026-05-04 17:45 56.01044 36.92903 14905 ft 316 kts 12°
2026-05-04 17:45 56.03081 36.94511 15613 ft 325 kts 30°
2026-05-04 17:45 56.04984 36.96739 16345 ft 329 kts 30°
2026-05-04 17:45 56.06908 36.98997 17053 ft 333 kts 30°
2026-05-04 17:46 56.08850 37.01301 17762 ft 337 kts 33°
2026-05-04 17:46 56.10602 37.04146 18402 ft 345 kts 47°
2026-05-04 17:46 56.11996 37.07703 18836 ft 358 kts 60°
2026-05-04 17:46 56.12933 37.11950 19074 ft 375 kts 75°
2026-05-04 17:47 56.13348 37.14974 19382 ft 379 kts 75°
2026-05-04 17:47 56.13986 37.19591 19942 ft 384 kts 76°
2026-05-04 17:47 56.14354 37.24353 20502 ft 388 kts 91°
2026-05-04 17:47 56.13971 37.29145 21056 ft 391 kts 108°
2026-05-04 17:48 56.12841 37.33564 21611 ft 391 kts 126°
2026-05-04 17:48 56.11064 37.37223 22173 ft 389 kts 143°
2026-05-04 17:48 56.08806 37.39834 22740 ft 387 kts 158°
2026-05-04 17:48 56.06364 37.41894 23290 ft 389 kts 158°
2026-05-04 17:49 56.03900 37.43956 23775 ft 392 kts 158°
2026-05-04 17:49 56.01419 37.46029 24244 ft 395 kts 158°
2026-05-04 17:49 55.98944 37.48217 24709 ft 400 kts 152°
2026-05-04 17:49 55.96728 37.51139 25163 ft 406 kts 139°
2026-05-04 17:50 55.94842 37.55046 25617 ft 413 kts 126°
2026-05-04 17:50 55.93499 37.59599 26059 ft 418 kts 112°
2026-05-04 17:50 55.92727 37.64608 26512 ft 422 kts 102°
2026-05-04 17:50 55.92164 37.69761 26965 ft 424 kts 103°
2026-05-04 17:51 55.91312 37.74783 27398 ft 424 kts 113°
2026-05-04 17:51 55.90013 37.79496 27834 ft 425 kts 121°
2026-05-04 17:51 55.88558 37.84093 28272 ft 427 kts 121°
2026-05-04 17:51 55.87102 37.88731 28706 ft 429 kts 121°
2026-05-04 17:52 55.85648 37.93374 29126 ft 431 kts 121°
2026-05-04 17:52 55.84180 37.98058 29537 ft 434 kts 120°
2026-05-04 17:52 55.82709 38.02753 29944 ft 436 kts 120°
2026-05-04 17:52 55.81313 38.07547 30293 ft 439 kts 114°
2026-05-04 17:53 55.80327 38.12708 30622 ft 442 kts 104°
2026-05-04 17:53 55.79822 38.18123 30816 ft 449 kts 94°
2026-05-04 17:53 55.79817 38.23704 30944 ft 455 kts 87°
2026-05-04 17:53 55.79959 38.29359 31073 ft 462 kts 87°
2026-05-04 17:54 55.80090 38.35101 31204 ft 468 kts 87°
2026-05-04 17:54 55.80421 38.40861 31423 ft 470 kts 79°
2026-05-04 17:54 55.81202 38.46498 31763 ft 469 kts 71°
2026-05-04 17:54 55.82200 38.52031 32154 ft 468 kts 71°
2026-05-04 17:55 55.83191 38.57535 32556 ft 467 kts 71°
2026-05-04 17:55 55.84176 38.63040 32972 ft 466 kts 71°
2026-05-04 17:55 55.85154 38.68521 33381 ft 464 kts 71°
2026-05-04 17:55 55.86313 38.73868 33781 ft 462 kts 63°
2026-05-04 17:56 55.87690 38.79018 34131 ft 461 kts 63°
2026-05-04 17:56 55.89067 38.84166 34473 ft 460 kts 63°
2026-05-04 17:56 55.90437 38.89306 34789 ft 459 kts 63°
2026-05-04 17:56 55.91806 38.94458 35095 ft 459 kts 63°
2026-05-04 17:57 55.93166 38.99604 35392 ft 459 kts 63°
2026-05-04 17:57 55.94522 39.04759 35679 ft 459 kts 63°
2026-05-04 17:57 55.95740 39.10030 35945 ft 460 kts 71°
2026-05-04 17:57 55.96519 39.15575 36215 ft 462 kts 79°
2026-05-04 17:58 55.96885 39.21277 36470 ft 462 kts 83°
2026-05-04 17:58 55.97188 39.26999 36729 ft 462 kts 83°
2026-05-04 17:58 55.97491 39.32716 36856 ft 463 kts 83°
2026-05-04 17:58 55.97795 39.38434 36876 ft 463 kts 83°
2026-05-04 17:59 55.98393 39.49878 36879 ft 463 kts 83°
2026-05-04 18:00 55.99723 39.66891 36872 ft 460 kts 71°
2026-05-04 18:00 56.02111 39.77454 36880 ft 460 kts 71°
2026-05-04 18:01 56.03029 39.88764 36880 ft 463 kts 89°
2026-05-04 18:01 56.03121 40.00272 36871 ft 463 kts 87°
2026-05-04 18:02 56.03388 40.17560 36890 ft 464 kts 87°
2026-05-04 18:02 56.03550 40.29100 36891 ft 464 kts 87°
2026-05-04 18:03 56.03676 40.40647 36896 ft 464 kts 88°
2026-05-04 18:03 56.03782 40.52193 36897 ft 464 kts 88°
2026-05-04 18:04 56.03880 40.63741 36890 ft 464 kts 88°
2026-05-04 18:05 56.04022 40.81057 36894 ft 464 kts 88°
2026-05-04 18:05 56.04104 40.92611 36899 ft 464 kts 88°
2026-05-04 18:06 56.04200 41.09918 36895 ft 464 kts 88°
2026-05-04 18:06 56.04239 41.21525 36898 ft 464 kts 88°
2026-05-04 18:07 56.04276 41.33066 36897 ft 464 kts 88°
2026-05-04 18:07 56.04306 41.44594 36892 ft 464 kts 88°
2026-05-04 18:08 56.04322 41.56127 36893 ft 464 kts 88°
2026-05-04 18:08 56.04328 41.67654 36890 ft 463 kts 88°
2026-05-04 18:09 56.04312 41.90694 36886 ft 463 kts 88°
2026-05-04 18:10 56.04286 42.02212 36880 ft 463 kts 89°
2026-05-04 18:10 56.04249 42.13713 36874 ft 463 kts 89°
2026-05-04 18:11 56.04197 42.25225 36872 ft 463 kts 89°
2026-05-04 18:11 56.04135 42.36728 36865 ft 463 kts 89°
2026-05-04 18:12 56.04062 42.48242 36866 ft 463 kts 89°
2026-05-04 18:12 56.03972 42.59755 36866 ft 463 kts 89°
2026-05-04 18:13 56.03833 42.71274 36867 ft 464 kts 89°
2026-05-04 18:14 56.03588 42.88572 36866 ft 464 kts 89°
2026-05-04 18:14 56.03417 43.00100 36870 ft 464 kts 89°
2026-05-04 18:15 56.03052 43.23184 36874 ft 465 kts 90°
2026-05-04 18:16 56.02960 43.34737 36884 ft 463 kts 83°
2026-05-04 18:16 56.03714 43.46138 36880 ft 462 kts 81°
2026-05-04 18:17 56.04875 43.63252 36881 ft 462 kts 81°
2026-05-04 18:18 56.06014 43.80370 36878 ft 462 kts 81°
2026-05-04 18:18 56.06755 43.91778 36879 ft 462 kts 81°
2026-05-04 18:19 56.07845 44.08910 36877 ft 462 kts 81°
2026-05-04 18:19 56.08555 44.20344 36880 ft 462 kts 81°
2026-05-04 18:20 56.09253 44.31774 36882 ft 462 kts 81°
2026-05-04 18:20 56.09953 44.43213 36880 ft 462 kts 81°
2026-05-04 18:21 56.10640 44.54657 36880 ft 462 kts 81°
2026-05-04 18:21 56.11241 44.66123 36876 ft 464 kts 87°
2026-05-04 18:22 56.11050 44.77702 36886 ft 465 kts 90°
2026-05-04 18:22 56.10804 44.89274 36879 ft 465 kts 90°
2026-05-04 18:23 56.10550 45.00864 36881 ft 466 kts 90°
2026-05-04 18:23 56.10332 45.10585 36880 ft 466 kts 90°
2026-05-04 18:24 56.10022 45.24063 36880 ft 466 kts 90°
2026-05-04 18:24 56.09883 45.29875 36215 ft 470 kts 90°
2026-05-04 18:24 56.09789 45.33844 35550 ft 474 kts 89°
2026-05-04 18:25 56.09647 45.39749 34734 ft 476 kts 89°
2026-05-04 18:25 56.09502 45.45660 34003 ft 475 kts 88°
2026-05-04 18:25 56.09352 45.51563 33163 ft 474 kts 88°
2026-05-04 18:25 56.09196 45.57474 32158 ft 477 kts 88°
2026-05-04 18:26 56.09037 45.63434 31064 ft 482 kts 89°
2026-05-04 18:26 56.08874 45.69458 29926 ft 488 kts 89°
2026-05-04 18:26 56.08706 45.75544 28826 ft 489 kts 89°
2026-05-04 18:26 56.08533 45.81632 27800 ft 489 kts 89°
2026-05-04 18:27 56.08358 45.87688 26929 ft 485 kts 89°
2026-05-04 18:27 56.08179 45.93689 26151 ft 480 kts 90°
2026-05-04 18:27 56.07999 45.99624 25391 ft 474 kts 90°
2026-05-04 18:27 56.07821 46.05488 24646 ft 469 kts 90°
2026-05-04 18:28 56.07643 46.11288 23944 ft 464 kts 90°
2026-05-04 18:28 56.07465 46.17027 23244 ft 459 kts 90°
2026-05-04 18:28 56.07286 46.22708 22471 ft 455 kts 90°
2026-05-04 18:28 56.07107 46.28333 21744 ft 450 kts 90°
2026-05-04 18:29 56.06927 46.33909 21054 ft 446 kts 90°
2026-05-04 18:29 56.06746 46.39414 20381 ft 442 kts 90°
2026-05-04 18:29 56.06562 46.44887 19713 ft 438 kts 90°
2026-05-04 18:29 56.06386 46.50308 19064 ft 434 kts 89°
2026-05-04 18:30 56.06782 46.60924 17743 ft 424 kts 81°
2026-05-04 18:30 56.07036 46.66155 17064 ft 420 kts 82°
2026-05-04 18:30 56.07286 46.71341 16458 ft 416 kts 82°
2026-05-04 18:31 56.07530 46.76461 15854 ft 411 kts 82°
2026-05-04 18:31 56.07768 46.81545 15266 ft 407 kts 82°
2026-05-04 18:31 56.08000 46.86536 14973 ft 396 kts 82°
2026-05-04 18:31 56.08218 46.91357 14845 ft 381 kts 82°
2026-05-04 18:32 56.08425 46.96002 14720 ft 366 kts 82°
2026-05-04 18:32 56.08621 47.00387 14590 ft 341 kts 82°
2026-05-04 18:32 56.08806 47.04520 14215 ft 327 kts 82°
2026-05-04 18:32 56.08989 47.08519 13875 ft 314 kts 82°
2026-05-04 18:33 56.09158 47.12305 13755 ft 295 kts 82°
2026-05-04 18:33 56.09314 47.15865 13630 ft 279 kts 82°
2026-05-04 18:33 56.09461 47.19225 13468 ft 264 kts 82°
2026-05-04 18:33 56.09609 47.22507 12960 ft 265 kts 82°
2026-05-04 18:34 56.09757 47.25789 12484 ft 264 kts 82°
2026-05-04 18:34 56.09901 47.29065 12020 ft 263 kts 82°
2026-05-04 18:34 56.10040 47.32314 11555 ft 261 kts 83°
2026-05-04 18:34 56.10178 47.35551 11107 ft 260 kts 83°
2026-05-04 18:35 56.10313 47.38766 10661 ft 258 kts 83°
2026-05-04 18:35 56.10466 47.41957 10216 ft 256 kts 78°
2026-05-04 18:35 56.10921 47.44973 9960 ft 244 kts 68°
2026-05-04 18:35 56.11432 47.47777 9829 ft 230 kts 68°
2026-05-04 18:36 56.11908 47.50436 9635 ft 220 kts 69°
2026-05-04 18:36 56.12372 47.53035 9317 ft 217 kts 69°
2026-05-04 18:36 56.12828 47.55581 8913 ft 213 kts 69°
2026-05-04 18:36 56.13283 47.58109 8443 ft 213 kts 69°
2026-05-04 18:37 56.13736 47.60623 7995 ft 211 kts 69°
2026-05-04 18:37 56.14199 47.63117 7543 ft 209 kts 64°
2026-05-04 18:37 56.15076 47.65118 6955 ft 206 kts 30°
2026-05-04 18:37 56.16418 47.65872 6348 ft 204 kts 356°
2026-05-04 18:38 56.17753 47.65183 5786 ft 199 kts 324°
2026-05-04 18:38 56.18633 47.63420 5501 ft 187 kts 295°
2026-05-04 18:38 56.18885 47.61176 5199 ft 185 kts 266°
2026-05-04 18:38 56.18426 47.59063 4967 ft 183 kts 228°
2026-05-04 18:39 56.17459 47.57647 4841 ft 175 kts 224°
2026-05-04 18:39 56.16575 47.56231 4707 ft 165 kts 225°
2026-05-04 18:39 56.15753 47.54906 4572 ft 154 kts 225°
2026-05-04 18:39 56.14864 47.53465 4318 ft 186 kts 224°
2026-05-04 18:40 56.13883 47.51881 4005 ft 192 kts 224°
2026-05-04 18:40 56.12893 47.50287 3672 ft 187 kts 224°
2026-05-04 18:40 56.12006 47.48720 3245 ft 174 kts 234°
2026-05-04 18:40 56.11395 47.46877 2651 ft 169 kts 246°
2026-05-04 18:41 56.10949 47.44958 1966 ft 169 kts 250°
2026-05-04 18:41 56.10553 47.42974 1258 ft 170 kts 251°
2026-05-04 18:41 56.10192 47.41062 1013 ft 150 kts 251°
2026-05-04 18:41 56.09880 47.39374 844 ft 138 kts 251°
2026-05-04 18:42 56.09581 47.37772 681 ft 134 kts 250°
2026-05-04 18:42 56.09298 47.36203 549 ft 130 kts 250°
2026-05-04 18:42 56.09063 47.34905 559 ft 85 kts 255°
2026-05-04 18:42 56.08932 47.34196 564 ft 37 kts 251°
2026-05-04 18:43 56.08852 47.33788 568 ft 33 kts 251°
2026-05-04 18:43 56.08789 47.33413 574 ft 30 kts 253°
2026-05-04 18:43 56.08728 47.33061 573 ft 23 kts 250°
2026-05-04 18:43 56.08641 47.32813 573 ft 24 kts 234°
2026-05-04 18:44 56.08544 47.32563 574 ft 24 kts 232°
2026-05-04 18:44 56.08486 47.32421 570 ft 22 kts 235°
2026-05-04 18:44 56.08408 47.32237 572 ft 12 kts 224°
2026-05-04 18:44 56.08371 47.32180 570 ft 4 kts 231°
2026-05-04 18:45 56.08357 47.32147 576 ft 3 kts 217°
2026-05-04 18:45 56.08335 47.32132 570 ft 4 kts 202°
2026-05-04 18:45 56.08320 47.32079 572 ft 2 kts 265°
2026-05-04 18:45 56.08320 47.32060 570 ft 0 kts 266°